Weather History for Monett, MO

Change the Weather History Date:

Saturday, January 19, 2013

  Actual Average (KJLN) Record (KJLN)
Temperature  
Mean Temperature 50 °F 35 °F  
Max Temperature 60 °F 45 °F 70 °F (1952)
Min Temperature 39 °F 25 °F -8 °F (1984)
Degree Days  
Heating Degree Days 16 30  
Month to date heating degree days 570  
Since 1 July heating degree days 2187  
Cooling Degree Days 0 0  
Month to date cooling degree days 0  
Year to date cooling degree days 0  
Moisture  
Dew Point 32 °F    
Average Humidity 56    
Maximum Humidity 75    
Minimum Humidity 39    
Precipitation  
Precipitation 0.00 in 0.06 in 1.68 in (1990)
Month to date precipitation 1.26  
Year to date precipitation 1.26  
Sea Level Pressure  
Sea Level Pressure 30.12 in    
Wind  
Wind Speed 14 mph (SW)    
Max Wind Speed 22 mph    
Max Gust Speed 26 mph    
Visibility 10 miles    
Events      
T = Trace of Precipitation, MM = Missing Value Source: NWS Daily Summary

Daily Weather History Graph

Daily Weather History Graph

Search for Another Location

Airport:

Trip Planner

Search our weather history database for the weather conditions in past years. The results will help you decide how hot, cold, wet, or windy it might be!

Date:

Astronomy

Jan. 19, 2013 Rise Set
Actual Time 7:26 AM CST 5:27 PM CST
Civil Twilight 6:58 AM CST 5:55 PM CST
Nautical Twilight 6:26 AM CST 6:27 PM CST
Astronomical Twilight 5:55 AM CST 6:58 PM CST
Moon 11:52 AM CST (1/19) 1:03 AM CST (1/19)
Length of Visible Light 10h 57m
Length of Day
10h 01m
First Quarter, 57% of the Moon is Illuminated
Jan 19
First Quarter
Jan 26
Full
Feb 3
Last Quarter
Feb 10
New
Feb 17
First Quarter

Hourly Weather History & Observations

Time (CST) Temp. Windchill Dew Point Humidity Pressure Visibility Wind Dir Wind Speed Gust Speed Precip Events Conditions
12:15 AM 41.0 °F 33.1 °F 28.4 °F 61% 30.17 in 10.0 mi South 15.0 mph 20.7 mph N/A   Clear
12:35 AM 41.0 °F 33.1 °F 28.4 °F 61% 30.16 in 10.0 mi South 15.0 mph - N/A   Clear
12:55 AM 41.0 °F 33.1 °F 28.4 °F 61% 30.16 in 10.0 mi South 15.0 mph - N/A   Clear
1:15 AM 41.0 °F 32.2 °F 28.4 °F 61% 30.16 in 10.0 mi SSW 18.4 mph 23.0 mph N/A   Clear
1:35 AM 41.0 °F 32.8 °F 28.4 °F 61% 30.15 in 10.0 mi South 16.1 mph 21.9 mph N/A   Clear
1:55 AM 41.0 °F 32.2 °F 28.4 °F 61% 30.15 in 10.0 mi South 18.4 mph 21.9 mph N/A   Clear
2:15 AM 41.0 °F 33.1 °F 28.4 °F 61% 30.15 in 10.0 mi South 15.0 mph - N/A   Clear
2:35 AM 41.0 °F 32.8 °F 28.4 °F 61% 30.15 in 10.0 mi South 16.1 mph 20.7 mph N/A   Clear
2:55 AM 41.0 °F 32.8 °F 28.4 °F 61% 30.15 in 10.0 mi South 16.1 mph - N/A   Clear
3:15 AM 41.0 °F 33.5 °F 28.4 °F 61% 30.14 in 10.0 mi South 13.8 mph - N/A   Clear
3:35 AM 41.0 °F 33.9 °F 28.4 °F 61% 30.13 in 10.0 mi South 12.7 mph - N/A   Clear
3:55 AM 41.0 °F 33.5 °F 28.4 °F 61% 30.13 in 10.0 mi South 13.8 mph - N/A   Clear
4:15 AM 41.0 °F 32.8 °F 28.4 °F 61% 30.13 in 10.0 mi South 16.1 mph 21.9 mph N/A   Clear
4:35 AM 41.0 °F 33.1 °F 28.4 °F 61% 30.12 in 10.0 mi South 15.0 mph 19.6 mph N/A   Clear
4:55 AM 41.0 °F 34.3 °F 28.4 °F 61% 30.12 in 10.0 mi South 11.5 mph - N/A   Clear
5:15 AM 41.0 °F 33.9 °F 28.4 °F 61% 30.12 in 10.0 mi South 12.7 mph - N/A   Clear
5:35 AM 39.2 °F 31.2 °F 30.2 °F 70% 30.12 in 10.0 mi SSW 13.8 mph 18.4 mph N/A   Clear
6:35 AM 41.0 °F 33.9 °F 30.2 °F 65% 30.12 in 10.0 mi South 12.7 mph - N/A   Clear
6:55 AM 41.0 °F 33.9 °F 30.2 °F 65% 30.12 in 10.0 mi SSW 12.7 mph - N/A   Clear
7:15 AM 41.0 °F 34.7 °F 30.2 °F 65% 30.12 in 10.0 mi SSW 10.4 mph 16.1 mph N/A   Clear
7:55 AM 41.0 °F 35.2 °F 32.0 °F 70% 30.12 in 10.0 mi SSW 9.2 mph - N/A   Clear
8:15 AM 42.8 °F 36.6 °F 32.0 °F 66% 30.12 in 10.0 mi SSW 11.5 mph - N/A   Clear
8:35 AM 44.6 °F 39.2 °F 32.0 °F 61% 30.13 in 10.0 mi SSW 10.4 mph - N/A   Clear
9:35 AM 48.2 °F - 32.0 °F 54% 30.14 in 10.0 mi SSW 15.0 mph 19.6 mph N/A   Clear
9:55 AM 50.0 °F - 32.0 °F 50% 30.14 in 10.0 mi SW 18.4 mph 25.3 mph N/A   Clear
10:15 AM 50.0 °F - 32.0 °F 50% 30.14 in 10.0 mi SW 20.7 mph - N/A   Clear
10:35 AM 51.8 °F - 32.0 °F 47% 30.13 in 10.0 mi SW 19.6 mph 26.5 mph N/A   Clear
11:15 AM 53.6 °F - 33.8 °F 47% 30.12 in 10.0 mi SW 19.6 mph 25.3 mph N/A   Clear
11:35 AM 53.6 °F - 33.8 °F 47% 30.12 in 10.0 mi SW 21.9 mph 26.5 mph N/A   Clear
11:55 AM 55.4 °F - 33.8 °F 44% 30.11 in 10.0 mi SW 20.7 mph 26.5 mph N/A   Clear
12:15 PM 55.4 °F - 35.6 °F 47% 30.09 in 10.0 mi SW 18.4 mph 24.2 mph N/A   Clear
12:35 PM 55.4 °F - 35.6 °F 47% 30.09 in 10.0 mi SW 18.4 mph 23.0 mph N/A   Clear
12:55 PM 57.2 °F - 35.6 °F 44% 30.08 in 10.0 mi SW 17.3 mph - N/A   Clear
1:15 PM 59.0 °F - 35.6 °F 42% 30.07 in 10.0 mi SW 16.1 mph 21.9 mph N/A   Clear
1:35 PM 59.0 °F - 35.6 °F 42% 30.06 in 10.0 mi SW 13.8 mph - N/A   Clear
1:55 PM 59.0 °F - 35.6 °F 42% 30.06 in 10.0 mi SSW 16.1 mph 21.9 mph N/A   Clear
2:15 PM 59.0 °F - 35.6 °F 42% 30.05 in 10.0 mi SW 16.1 mph - N/A   Clear
2:35 PM 60.8 °F - 35.6 °F 39% 30.05 in 10.0 mi WSW 13.8 mph 18.4 mph N/A   Clear
2:55 PM 60.8 °F - 35.6 °F 39% 30.05 in 10.0 mi SW 13.8 mph - N/A   Clear
3:15 PM 60.8 °F - 35.6 °F 39% 30.05 in 10.0 mi SW 16.1 mph 20.7 mph N/A   Clear
3:35 PM 60.8 °F - 35.6 °F 39% 30.05 in 10.0 mi SSW 13.8 mph - N/A   Clear
3:55 PM 59.0 °F - 35.6 °F 42% 30.05 in 10.0 mi SSW 15.0 mph - N/A   Clear
4:15 PM 59.0 °F - 35.6 °F 42% 30.05 in 10.0 mi SW 16.1 mph 19.6 mph N/A   Clear
4:35 PM 59.0 °F - 35.6 °F 42% 30.07 in 10.0 mi SW 9.2 mph - N/A   Clear
4:55 PM 57.2 °F - 35.6 °F 44% 30.07 in 10.0 mi SW 8.1 mph - N/A   Clear
5:15 PM 55.4 °F - 35.6 °F 47% 30.08 in 10.0 mi WSW 8.1 mph - N/A   Clear
5:35 PM 51.8 °F - 35.6 °F 54% 30.09 in 10.0 mi West 8.1 mph - N/A   Clear
5:55 PM 51.8 °F - 33.8 °F 50% 30.11 in 10.0 mi West 8.1 mph - N/A   Clear
6:15 PM 51.8 °F - 33.8 °F 50% 30.12 in 10.0 mi WNW 6.9 mph - N/A   Clear
6:35 PM 51.8 °F - 33.8 °F 50% 30.13 in 10.0 mi WNW 6.9 mph - N/A   Clear
6:55 PM 50.0 °F - 33.8 °F 54% 30.13 in 10.0 mi WSW 5.8 mph - N/A   Clear
7:15 PM 50.0 °F - 33.8 °F 54% 30.13 in 10.0 mi WSW 4.6 mph - N/A   Clear
7:35 PM 50.0 °F - 33.8 °F 54% 30.14 in 10.0 mi WSW 5.8 mph - N/A   Clear
7:55 PM 48.2 °F - 33.8 °F 58% 30.15 in 10.0 mi WSW 5.8 mph - N/A   Clear
8:15 PM 48.2 °F - 33.8 °F 58% 30.16 in 10.0 mi WSW 5.8 mph - N/A   Clear
8:35 PM 46.4 °F 43.5 °F 33.8 °F 62% 30.16 in 10.0 mi SW 5.8 mph - N/A   Clear
8:55 PM 46.4 °F 44.3 °F 33.8 °F 62% 30.17 in 10.0 mi SSW 4.6 mph - N/A   Clear
9:15 PM 46.4 °F 43.5 °F 33.8 °F 62% 30.17 in 10.0 mi SSW 5.8 mph - N/A   Clear
9:35 PM 44.6 °F 41.4 °F 33.8 °F 66% 30.17 in 10.0 mi SSW 5.8 mph - N/A   Clear
9:55 PM 44.6 °F 41.4 °F 33.8 °F 66% 30.17 in 10.0 mi SSW 5.8 mph - N/A   Clear
10:15 PM 42.8 °F 40.1 °F 33.8 °F 70% 30.17 in 10.0 mi SSW 4.6 mph - N/A   Clear
10:35 PM 42.8 °F 40.1 °F 33.8 °F 70% 30.18 in 10.0 mi SSW 4.6 mph - N/A   Clear
10:55 PM 44.6 °F 43.1 °F 33.8 °F 66% 30.18 in 10.0 mi SW 3.5 mph - N/A   Clear
11:15 PM 42.8 °F 38.0 °F 33.8 °F 70% 30.20 in 10.0 mi NNW 8.1 mph - N/A   Clear
11:35 PM 39.2 °F 35.9 °F 32.0 °F 75% 30.20 in 10.0 mi NNW 4.6 mph - N/A   Clear
11:55 PM 42.8 °F 40.1 °F 32.0 °F 66% 30.20 in 10.0 mi North 4.6 mph - N/A   Clear